Location: Oshawa
(43.9000°N, 78.8670°W)
Time: 12:49:26
(UTC-04:00)

Transit 2A Rocket - Visible Passes

Search period start: 23 May 2017 00:00
Search period end: 02 June 2017 00:00
Orbit: 593 x 911 km, 66.7° (Epoch: 22 May)

Date Brightness Start Highest point End Pass type
(mag) Time Alt. Az. Time Alt. Az. Time Alt. Az.
23 May 6.1 04:02:00 11° S 04:05:29 28° ESE 04:09:10 10° NE visible
24 May 6.9 03:20:55 10° SE 03:23:22 15° ESE 03:25:50 10° ENE visible
24 May 4.8 05:01:10 10° SW 05:05:23 55° NW 05:09:43 10° NNE visible
25 May 4.5 04:19:42 17° SSW 04:22:59 80° ESE 04:27:22 10° NNE visible
26 May 5.3 03:38:31 23° S 03:40:42 42° ESE 03:44:49 10° NE visible
27 May 6.2 02:57:17 20° SE 02:58:30 23° ESE 03:01:55 10° ENE visible
27 May 5.4 04:37:12 12° WSW 04:40:48 38° NW 04:44:56 10° NNE visible
28 May 6.9 02:16:01 12° ESE 02:16:26 12° ESE 02:18:09 10° E visible
28 May 4.6 03:55:56 25° SW 03:58:19 68° WNW 04:02:43 10° NNE visible
29 May 4.6 03:14:37 41° S 03:15:57 65° ESE 03:20:18 10° NE visible
29 May 6.6 04:56:04 10° W 04:58:59 17° NW 05:01:59 10° N visible
30 May 5.4 02:33:16 33° SE 02:33:42 34° ESE 02:37:40 10° NE visible
30 May 6.0 04:13:10 13° WSW 04:16:17 27° NW 04:20:06 10° NNE visible
31 May 6.4 01:51:53 19° ESE 01:51:53 19° ESE 01:54:36 10° ENE visible
31 May 5.2 03:31:46 27° WSW 03:33:43 45° NW 03:37:59 10° NNE visible
01 Jun 4.4 02:50:21 55° SW 02:51:16 83° WNW 02:55:42 10° NNE visible
01 Jun 6.9 04:32:28 10° WNW 04:34:36 13° NW 04:36:48 10° N visible
